SCP
2 1 0 0 0 0 0 1 0 1 1 1 1 1 1 2 2 2 2 2 2 0 0 0 0 0 0 0 -0 -0 0 0 0 0 0 0 0 0 0 0 0 0 0
1 1 1 0 0 0 0 1 1 1 1 1 2 1 1 1 1 1 2 2 0 0 0 0 0 0 0 0 0 0 -0 0 0 0 0 0 0 0 0 0 0 0 0
1 1 1 1 0 0 1 1 1 1 1 1 1 1 1 0 0 1 0 0 0 0 0 0 0 0 0 0 0 -0 0 0 0 0 -0 -0 0 0 0 0 0 0 0
1 1 1 1 1 1 1 1 1 1 1 1 1 1 1 1 1 0 0 0 0 0 0 0 0 0 0 0 -0 0 0 0 0 0 0 0 0 0 0 0 0 0 0
1 1 1 1 1 1 1 1 1 1 1 1 1 1 1 0 0 0 0 0 0 0 0 0 0 0 0 0 0 0 0 0 0 0 0 0 0 0 0 0 0 0 0
1 1 1 1 1 1 1 1 1 1 1 1 1 1 0 0 0 0 0 0 0 0 0 0 0 0 0 0 0 0 0 0 0 0 0 0 0 0 0 0 0 0 0
1 1 1 1 1 1 0 0 0 0 0 0 0 0 0 0 0 0 0 0 0 0 0 0 0 0 0 0 0 0 0 0 0 0 0 0 0 0 0 0 0 0 0
1 1 1 1 1 1 0 0 0 0 0 0 0 0 0 0 0 0 0 0 0 0 0 0 0 0 0 0 0 0 0 0 0 0 0 0 0 0 0 0 0 0 0
0 0 1 0 0 0 0 0 0 0 0 0 0 0 0 0 0 0 0 0 0 0 0 0 0 0 0 0 0 0 0 0 0 0 0 0 0 0 0 0 0 0 0
1 1 1 0 0 0 0 0 0 0 0 0 0 0 0 0 0 0 0 0 0 0 0 0 0 0 0 0 0 0 0 0 0 0 0 0 0 0 0 0 0 0 0
0 0 0 0 0 0 0 0 0 0 0 0 0 0 0 0 0 0 0 0 0 0 0 0 0 0 0 0 0 0 0 0 0 0 0 0 0 0 0 0 0 0 0
1 1 0 0 0 0 0 0 0 0 0 0 0 0 0 0 0 0 0 0 0 0 0 0 0 0 0 0 0 0 0 0 0 0 0 0 0 0 0 0 0 0 0
0 0 0 0 0 0 0 0 0 0 0 0 0 0 0 0 0 0 0 0 0 0 0 0 0 0 0 0 0 0 0 0 0 0 0 0 0 0 0 0 0 0 0
0 0 0 1 1 1 0 0 0 0 0 0 0 0 0 0 0 0 0 0 0 0 0 0 0 0 0 0 0 0 0 0 0 0 0 0 0 0 0 0 0 0 0
0 0 1 1 1 0 0 0 0 0 0 0 0 0 0 0 0 0 0 0 0 0 0 0 0 0 0 0 0 0 0 0 0 0 0 0 0 0 0 0 0 0 0
0 0 0 0 0 0 0 0 0 0 0 0 0 0 0 0 0 0 0 0 0 0 0 0 0 0 0 0 0 0 0 0 0 0 0 0 0 0 0 0 0 0 0
0 0 0 0 0 0 0 0 0 -0 0 0 0 0 0 0 0 0 0 0 0 0 0 0 0 0 0 0 0 0 0 0 0 0 0 0 0 0 0 0 0 0 0
0 0 0 0 0 0 0 0 0 0 0 0 0 0 0 0 -0 -0 0 0 0 0 0 0 0 0 0 0 0 0 0 0 0 0 0 0 0 0 0 0 0 0 0
0 0 0 0 0 0 0 0 0 0 0 0 0 0 0 0 0 0 0 0 0 0 0 0 0 0 0 0 0 0 0 0 0 0 0 0 0 0 0 0 0 0 0
0 0 0 0 0 0 0 0 0 0 0 0 0 0 0 0 0 0 0 0 0 0 0 0 0 0 0 0 0 0 0 0 0 0 0 0 0 0 0 0 0 0 0
0 0 0 0 0 0 0 0 0 0 0 0 -0 -0 0 0 0 0 0 0 0 0 0 0 0 0 0 0 0 0 0 0 0 0 0 0 0 0 0 0 0 0 0
0 0 0 0 0 0 0 0 -0 0 0 -0 -0 -0 -0 0 0 0 0 0 0 0 0 0 0 0 0 0 0 0 0 0 0 0 0 0 0 0 0 0 0 0 0
0 0 0 0 0 0 0 -0 -0 -0 0 0 0 0 0 -0 0 0 0 0 0 0 0 0 0 0 0 0 0 0 0 0 0 0 0 0 0 0 0 0 0 -0 -0
0 0 0 0 0 -0 -0 -0 -0 -0 -0 0 0 0 0 0 0 0 0 0 0 0 0 0 0 0 0 0 0 0 0 0 0 0 0 0 0 0 0 0 0 -0 -0
0 0 0 -0 -0 -0 -0 -0 -0 -0 -0 -0 0 0 0 0 0 0 0 0 0 0 0 0 0 0 0 0 0 0 0 0 0 0 0 0 0 0 0 -0 -0 -0 -0
0 0 0 0 -0 -0 -0 -0 -0 -0 -0 -0 0 0 0 0 0 0 0 0 0 0 0 0 0 0 0 0 0 0 0 0 0 0 0 0 0 0 0 0 0 0 0
Wind_Speed_500mb
46 55 62 58 55 51 48 56 60 58 57 58 57 51 49 46 45 41 42 37 31 26 17 13 28 20 22 37 41 36 31 30 34 40 38 31 29 19 31 33 21 31 40
53 57 58 58 53 50 54 63 63 62 65 63 59 55 53 50 47 44 41 46 47 43 35 28 22 16 11 14 36 31 30 32 33 35 33 22 29 24 38 37 44 48 54
64 66 68 63 58 55 57 66 69 67 62 62 57 58 54 48 47 47 41 40 40 41 34 21 18 21 18 24 26 33 28 27 31 37 26 12 15 48 39 34 33 53 53
51 58 67 68 62 62 59 61 63 60 60 63 60 61 60 52 38 28 32 36 37 30 33 35 11 10 11 19 33 31 27 28 31 35 34 32 26 16 24 29 43 36 43
53 56 60 62 61 59 59 62 63 65 67 64 69 61 48 33 27 31 36 39 32 28 32 25 22 12 23 23 32 27 26 28 32 34 37 39 24 19 24 42 45 40 35
46 46 46 43 50 54 59 64 68 68 62 61 65 57 48 46 45 45 28 28 27 21 24 15 15 24 26 33 27 25 27 31 35 39 41 32 23 25 24 38 46 51 37
50 51 55 58 60 59 59 61 61 63 59 53 58 66 61 61 52 51 33 29 37 30 23 26 36 25 31 27 24 26 31 34 38 43 41 41 37 36 31 32 41 42 45
46 52 53 54 57 61 59 56 57 59 60 55 45 41 44 43 51 49 41 32 26 34 41 42 30 32 28 24 25 29 34 39 41 45 45 40 37 35 30 24 32 46 42
42 43 45 56 59 60 58 55 50 50 48 42 42 38 39 38 33 27 36 37 49 45 35 33 36 29 23 22 29 33 34 38 45 48 40 35 33 32 26 21 25 30 34
35 40 41 48 49 49 42 34 34 39 41 46 42 39 35 33 34 38 45 47 37 32 36 36 31 26 21 24 29 33 38 42 45 39 36 33 31 28 24 24 26 28 26
33 35 33 36 37 32 30 33 34 33 30 24 23 27 32 39 44 44 49 38 33 35 36 32 25 20 22 26 31 35 38 42 40 34 32 32 33 26 24 24 24 27 30
21 27 35 38 36 34 30 29 29 24 20 25 31 41 36 38 44 39 35 38 38 38 32 24 18 19 24 29 32 35 38 38 35 33 31 32 30 28 25 22 29 27 28
20 24 31 38 36 31 30 30 24 26 27 25 37 38 41 38 45 44 40 39 35 30 21 15 18 24 28 31 32 35 37 36 33 33 32 31 32 31 26 25 24 26 28
28 30 34 35 34 34 35 33 30 31 27 26 33 39 45 44 47 41 42 38 28 17 15 18 20 25 28 29 33 36 37 31 31 32 34 30 32 30 28 28 27 25 30
27 29 35 44 51 48 44 40 35 29 23 19 27 38 45 54 53 50 40 28 19 15 12 19 23 24 26 32 35 37 31 30 33 35 33 30 30 31 30 27 34 36 34
22 29 39 52 55 54 53 43 35 19 17 28 35 44 51 49 49 38 29 19 11 11 13 16 21 26 30 32 32 30 30 33 35 33 34 33 28 28 30 31 35 38 41
36 40 42 51 56 62 58 47 35 33 30 36 35 33 34 29 27 23 17 9 10 10 15 18 19 21 23 26 27 32 34 32 31 32 33 33 29 30 33 33 29 36 42
45 49 56 60 61 61 51 68 42 37 45 40 35 27 32 27 19 14 8 4 7 6 9 10 15 19 25 30 34 35 31 28 27 29 31 32 35 37 39 37 32 36 42
51 57 57 55 57 71 83 60 48 44 43 47 45 38 26 20 12 5 2 1 3 5 11 17 18 23 28 32 34 33 30 29 29 28 30 32 34 37 41 40 40 36 40
51 52 50 48 59 70 69 54 54 51 47 43 35 28 21 13 8 8 8 7 7 14 16 17 20 21 25 31 35 36 35 35 33 32 34 35 35 39 41 38 39 40 46
53 54 54 59 59 58 52 55 56 53 45 37 30 21 15 10 10 11 13 11 12 15 18 19 22 23 26 31 37 41 42 43 40 35 38 44 44 41 39 34 36 42 52
52 54 58 57 51 46 46 50 43 37 29 28 29 25 22 18 18 13 14 16 18 21 21 21 21 23 25 25 28 34 39 42 42 43 48 49 45 40 36 35 36 42 48
55 57 60 60 52 44 31 30 32 34 30 24 23 28 23 24 23 20 22 22 24 23 21 20 20 20 22 25 27 32 38 43 44 43 41 41 39 36 34 33 37 43 49
60 60 58 56 51 36 30 27 32 29 26 27 25 24 23 22 22 21 24 25 25 22 21 20 19 20 23 32 37 41 44 48 48 44 39 35 35 34 36 38 42 47 54
57 51 49 48 47 43 40 37 34 31 34 33 32 28 23 23 24 23 24 26 29 27 21 20 22 26 30 39 41 44 47 50 49 36 34 39 42 43 47 48 53 52 52
46 45 46 47 47 42 42 40 36 31 30 33 30 27 25 24 23 23 27 30 29 26 26 27 28 26 31 32 35 38 41 45 43 34 41 44 46 46 50 55 55 56 54
Wind_Direction_500mb
185 191 196 194 197 203 205 207 206 199 197 195 195 196 201 203 205 205 202 203 208 215 221 273 288 307 338 339 324 321 327 328 332 341 347 340 331 321 317 330 317 317 334
184 182 183 186 190 199 208 210 208 206 204 206 205 206 207 209 215 209 210 220 219 221 213 209 218 276 297 294 310 308 319 326 338 352 352 335 336 328 335 331 319 331 339
183 183 184 187 191 199 209 211 210 209 209 210 210 211 211 214 212 217 208 198 205 215 209 192 227 236 167 276 306 300 313 324 343 350 3 338 319 330 324 325 331 332 338
190 185 185 191 199 203 206 210 209 206 209 210 213 216 214 209 214 206 199 205 212 215 211 201 192 151 195 260 277 286 308 331 339 347 347 346 329 312 311 324 324 333 334
190 189 194 197 197 198 200 202 204 207 211 213 215 216 213 219 243 225 228 225 235 221 204 209 205 195 230 260 259 284 305 324 340 342 343 338 326 307 304 317 324 325 326
194 192 191 189 191 195 198 201 204 208 212 214 216 222 234 245 246 241 240 240 219 195 179 148 154 216 235 242 265 284 310 324 334 339 339 336 322 313 317 314 319 319 324
192 191 190 194 195 199 201 203 208 215 218 224 239 240 244 249 248 243 219 202 172 175 173 167 204 215 217 242 269 294 311 322 333 338 336 333 327 325 322 319 316 317 327
191 196 197 199 200 201 204 209 215 224 238 248 241 228 228 234 239 238 229 205 218 191 179 197 200 200 222 252 277 298 312 325 333 334 335 329 327 325 323 319 319 322 325
187 188 190 201 207 215 221 227 227 226 227 229 240 246 247 235 219 201 187 195 178 181 194 184 187 210 233 266 288 304 318 327 332 329 329 331 330 326 325 325 323 316 316
183 186 191 198 206 213 213 219 226 228 228 238 243 243 232 215 194 184 190 189 186 189 178 191 204 216 249 281 296 311 321 328 328 330 331 336 328 326 326 324 314 311 301
195 182 182 187 195 202 219 223 219 218 217 225 223 201 197 191 186 180 184 192 183 175 182 199 214 247 279 294 302 314 322 328 327 334 337 334 329 322 319 320 311 307 303
201 190 188 189 191 198 202 195 191 191 193 186 174 167 167 180 177 178 198 179 178 178 191 207 239 272 286 295 310 318 325 327 334 334 331 335 322 313 312 313 305 306 309
203 188 180 180 178 174 173 170 175 179 175 185 185 194 189 184 190 194 174 172 178 183 195 232 263 282 296 305 313 321 326 333 334 333 333 327 310 312 308 299 301 310 317
188 181 178 170 160 169 162 158 166 177 184 184 202 208 203 195 181 174 170 171 176 191 223 257 278 291 305 308 316 323 333 335 337 334 327 319 309 305 300 302 306 314 324
185 174 167 163 165 162 159 157 162 164 182 202 209 193 164 166 163 161 161 171 188 218 257 279 297 308 304 312 320 325 332 343 334 336 329 322 311 303 304 298 303 319 320
160 162 170 169 165 160 162 167 157 159 201 195 175 150 143 145 149 157 161 180 207 253 285 303 303 307 312 319 325 332 338 337 336 334 334 329 318 318 315 313 305 306 321
112 142 156 159 163 170 170 138 117 103 109 107 122 138 153 151 149 162 172 205 250 279 291 308 319 323 329 329 336 335 336 337 333 332 330 326 323 327 323 327 310 312 323
115 125 134 143 150 143 123 122 124 134 135 133 149 157 171 176 173 181 167 205 257 296 338 349 355 352 343 336 332 339 342 344 335 333 333 332 333 332 327 324 314 311 321
119 122 130 136 138 141 141 138 135 148 149 151 158 159 161 153 151 132 110 306 338 25 28 15 1 349 339 334 339 348 347 351 354 357 349 341 337 335 328 324 322 316 320
129 133 141 143 145 146 152 148 146 149 153 150 152 149 137 107 123 137 109 87 46 20 17 8 0 358 356 356 1 1 359 354 358 354 351 341 342 332 326 326 331 328 326
133 133 134 138 140 151 152 142 143 140 142 142 142 142 147 127 131 91 73 52 38 36 31 24 18 14 18 19 16 14 11 4 0 357 354 353 353 348 341 340 334 331 327
125 128 126 127 128 137 145 137 131 118 119 126 123 122 120 116 101 94 75 63 52 47 44 40 35 26 20 14 12 14 13 11 8 3 358 354 352 352 349 342 337 331 328
125 128 129 129 125 124 125 127 131 141 143 140 131 122 112 109 97 86 80 71 64 61 54 48 39 22 12 7 7 10 11 9 7 1 354 352 352 353 354 350 344 341 337
133 133 134 135 137 142 143 147 140 138 133 126 121 120 116 110 102 91 77 66 61 54 48 41 30 20 12 10 9 7 5 4 2 357 353 355 1 360 0 358 358 354 349
140 142 139 136 134 135 134 132 131 135 133 133 128 119 117 105 91 80 73 64 62 57 47 38 32 29 22 19 12 5 2 359 358 2 359 5 5 6 5 4 3 356 350
138 135 135 138 136 138 131 127 125 129 128 124 123 121 111 105 95 85 73 61 52 40 35 37 43 33 31 20 10 5 4 5 8 14 13 11 9 10 6 4 3 1 360
Wind_Speed_850mb
46 55 62 58 55 51 48 56 60 58 57 58 57 51 49 46 45 41 42 37 31 26 17 13 28 20 22 37 41 36 31 30 34 40 38 31 29 19 31 33 21 31 40
53 57 58 58 53 50 54 63 63 62 65 63 59 55 53 50 47 44 41 46 47 43 35 28 22 16 11 14 36 31 30 32 33 35 33 22 29 24 38 37 44 48 54
64 66 68 63 58 55 57 66 69 67 62 62 57 58 54 48 47 47 41 40 40 41 34 21 18 21 18 24 26 33 28 27 31 37 26 12 15 48 39 34 33 53 53
51 58 67 68 62 62 59 61 63 60 60 63 60 61 60 52 38 28 32 36 37 30 33 35 11 10 11 19 33 31 27 28 31 35 34 32 26 16 24 29 43 36 43
53 56 60 62 61 59 59 62 63 65 67 64 69 61 48 33 27 31 36 39 32 28 32 25 22 12 23 23 32 27 26 28 32 34 37 39 24 19 24 42 45 40 35
46 46 46 43 50 54 59 64 68 68 62 61 65 57 48 46 45 45 28 28 27 21 24 15 15 24 26 33 27 25 27 31 35 39 41 32 23 25 24 38 46 51 37
50 51 55 58 60 59 59 61 61 63 59 53 58 66 61 61 52 51 33 29 37 30 23 26 36 25 31 27 24 26 31 34 38 43 41 41 37 36 31 32 41 42 45
46 52 53 54 57 61 59 56 57 59 60 55 45 41 44 43 51 49 41 32 26 34 41 42 30 32 28 24 25 29 34 39 41 45 45 40 37 35 30 24 32 46 42
42 43 45 56 59 60 58 55 50 50 48 42 42 38 39 38 33 27 36 37 49 45 35 33 36 29 23 22 29 33 34 38 45 48 40 35 33 32 26 21 25 30 34
35 40 41 48 49 49 42 34 34 39 41 46 42 39 35 33 34 38 45 47 37 32 36 36 31 26 21 24 29 33 38 42 45 39 36 33 31 28 24 24 26 28 26
33 35 33 36 37 32 30 33 34 33 30 24 23 27 32 39 44 44 49 38 33 35 36 32 25 20 22 26 31 35 38 42 40 34 32 32 33 26 24 24 24 27 30
21 27 35 38 36 34 30 29 29 24 20 25 31 41 36 38 44 39 35 38 38 38 32 24 18 19 24 29 32 35 38 38 35 33 31 32 30 28 25 22 29 27 28
20 24 31 38 36 31 30 30 24 26 27 25 37 38 41 38 45 44 40 39 35 30 21 15 18 24 28 31 32 35 37 36 33 33 32 31 32 31 26 25 24 26 28
28 30 34 35 34 34 35 33 30 31 27 26 33 39 45 44 47 41 42 38 28 17 15 18 20 25 28 29 33 36 37 31 31 32 34 30 32 30 28 28 27 25 30
27 29 35 44 51 48 44 40 35 29 23 19 27 38 45 54 53 50 40 28 19 15 12 19 23 24 26 32 35 37 31 30 33 35 33 30 30 31 30 27 34 36 34
22 29 39 52 55 54 53 43 35 19 17 28 35 44 51 49 49 38 29 19 11 11 13 16 21 26 30 32 32 30 30 33 35 33 34 33 28 28 30 31 35 38 41
36 40 42 51 56 62 58 47 35 33 30 36 35 33 34 29 27 23 17 9 10 10 15 18 19 21 23 26 27 32 34 32 31 32 33 33 29 30 33 33 29 36 42
45 49 56 60 61 61 51 68 42 37 45 40 35 27 32 27 19 14 8 4 7 6 9 10 15 19 25 30 34 35 31 28 27 29 31 32 35 37 39 37 32 36 42
51 57 57 55 57 71 83 60 48 44 43 47 45 38 26 20 12 5 2 1 3 5 11 17 18 23 28 32 34 33 30 29 29 28 30 32 34 37 41 40 40 36 40
51 52 50 48 59 70 69 54 54 51 47 43 35 28 21 13 8 8 8 7 7 14 16 17 20 21 25 31 35 36 35 35 33 32 34 35 35 39 41 38 39 40 46
53 54 54 59 59 58 52 55 56 53 45 37 30 21 15 10 10 11 13 11 12 15 18 19 22 23 26 31 37 41 42 43 40 35 38 44 44 41 39 34 36 42 52
52 54 58 57 51 46 46 50 43 37 29 28 29 25 22 18 18 13 14 16 18 21 21 21 21 23 25 25 28 34 39 42 42 43 48 49 45 40 36 35 36 42 48
55 57 60 60 52 44 31 30 32 34 30 24 23 28 23 24 23 20 22 22 24 23 21 20 20 20 22 25 27 32 38 43 44 43 41 41 39 36 34 33 37 43 49
60 60 58 56 51 36 30 27 32 29 26 27 25 24 23 22 22 21 24 25 25 22 21 20 19 20 23 32 37 41 44 48 48 44 39 35 35 34 36 38 42 47 54
57 51 49 48 47 43 40 37 34 31 34 33 32 28 23 23 24 23 24 26 29 27 21 20 22 26 30 39 41 44 47 50 49 36 34 39 42 43 47 48 53 52 52
46 45 46 47 47 42 42 40 36 31 30 33 30 27 25 24 23 23 27 30 29 26 26 27 28 26 31 32 35 38 41 45 43 34 41 44 46 46 50 55 55 56 54
Wind_Direction_850mb
185 191 196 194 197 203 205 207 206 199 197 195 195 196 201 203 205 205 202 203 208 215 221 273 288 307 338 339 324 321 327 328 332 341 347 340 331 321 317 330 317 317 334
184 182 183 186 190 199 208 210 208 206 204 206 205 206 207 209 215 209 210 220 219 221 213 209 218 276 297 294 310 308 319 326 338 352 352 335 336 328 335 331 319 331 339
183 183 184 187 191 199 209 211 210 209 209 210 210 211 211 214 212 217 208 198 205 215 209 192 227 236 167 276 306 300 313 324 343 350 3 338 319 330 324 325 331 332 338
190 185 185 191 199 203 206 210 209 206 209 210 213 216 214 209 214 206 199 205 212 215 211 201 192 151 195 260 277 286 308 331 339 347 347 346 329 312 311 324 324 333 334
190 189 194 197 197 198 200 202 204 207 211 213 215 216 213 219 243 225 228 225 235 221 204 209 205 195 230 260 259 284 305 324 340 342 343 338 326 307 304 317 324 325 326
194 192 191 189 191 195 198 201 204 208 212 214 216 222 234 245 246 241 240 240 219 195 179 148 154 216 235 242 265 284 310 324 334 339 339 336 322 313 317 314 319 319 324
192 191 190 194 195 199 201 203 208 215 218 224 239 240 244 249 248 243 219 202 172 175 173 167 204 215 217 242 269 294 311 322 333 338 336 333 327 325 322 319 316 317 327
191 196 197 199 200 201 204 209 215 224 238 248 241 228 228 234 239 238 229 205 218 191 179 197 200 200 222 252 277 298 312 325 333 334 335 329 327 325 323 319 319 322 325
187 188 190 201 207 215 221 227 227 226 227 229 240 246 247 235 219 201 187 195 178 181 194 184 187 210 233 266 288 304 318 327 332 329 329 331 330 326 325 325 323 316 316
183 186 191 198 206 213 213 219 226 228 228 238 243 243 232 215 194 184 190 189 186 189 178 191 204 216 249 281 296 311 321 328 328 330 331 336 328 326 326 324 314 311 301
195 182 182 187 195 202 219 223 219 218 217 225 223 201 197 191 186 180 184 192 183 175 182 199 214 247 279 294 302 314 322 328 327 334 337 334 329 322 319 320 311 307 303
201 190 188 189 191 198 202 195 191 191 193 186 174 167 167 180 177 178 198 179 178 178 191 207 239 272 286 295 310 318 325 327 334 334 331 335 322 313 312 313 305 306 309
203 188 180 180 178 174 173 170 175 179 175 185 185 194 189 184 190 194 174 172 178 183 195 232 263 282 296 305 313 321 326 333 334 333 333 327 310 312 308 299 301 310 317
188 181 178 170 160 169 162 158 166 177 184 184 202 208 203 195 181 174 170 171 176 191 223 257 278 291 305 308 316 323 333 335 337 334 327 319 309 305 300 302 306 314 324
185 174 167 163 165 162 159 157 162 164 182 202 209 193 164 166 163 161 161 171 188 218 257 279 297 308 304 312 320 325 332 343 334 336 329 322 311 303 304 298 303 319 320
160 162 170 169 165 160 162 167 157 159 201 195 175 150 143 145 149 157 161 180 207 253 285 303 303 307 312 319 325 332 338 337 336 334 334 329 318 318 315 313 305 306 321
112 142 156 159 163 170 170 138 117 103 109 107 122 138 153 151 149 162 172 205 250 279 291 308 319 323 329 329 336 335 336 337 333 332 330 326 323 327 323 327 310 312 323
115 125 134 143 150 143 123 122 124 134 135 133 149 157 171 176 173 181 167 205 257 296 338 349 355 352 343 336 332 339 342 344 335 333 333 332 333 332 327 324 314 311 321
119 122 130 136 138 141 141 138 135 148 149 151 158 159 161 153 151 132 110 306 338 25 28 15 1 349 339 334 339 348 347 351 354 357 349 341 337 335 328 324 322 316 320
129 133 141 143 145 146 152 148 146 149 153 150 152 149 137 107 123 137 109 87 46 20 17 8 0 358 356 356 1 1 359 354 358 354 351 341 342 332 326 326 331 328 326
133 133 134 138 140 151 152 142 143 140 142 142 142 142 147 127 131 91 73 52 38 36 31 24 18 14 18 19 16 14 11 4 0 357 354 353 353 348 341 340 334 331 327
125 128 126 127 128 137 145 137 131 118 119 126 123 122 120 116 101 94 75 63 52 47 44 40 35 26 20 14 12 14 13 11 8 3 358 354 352 352 349 342 337 331 328
125 128 129 129 125 124 125 127 131 141 143 140 131 122 112 109 97 86 80 71 64 61 54 48 39 22 12 7 7 10 11 9 7 1 354 352 352 353 354 350 344 341 337
133 133 134 135 137 142 143 147 140 138 133 126 121 120 116 110 102 91 77 66 61 54 48 41 30 20 12 10 9 7 5 4 2 357 353 355 1 360 0 358 358 354 349
140 142 139 136 134 135 134 132 131 135 133 133 128 119 117 105 91 80 73 64 62 57 47 38 32 29 22 19 12 5 2 359 358 2 359 5 5 6 5 4 3 356 350
138 135 135 138 136 138 131 127 125 129 128 124 123 121 111 105 95 85 73 61 52 40 35 37 43 33 31 20 10 5 4 5 8 14 13 11 9 10 6 4 3 1 360